Tracking 35331 objects as of 15-Sep-2026
HD Live streaming from Space Station
objects crossing your sky now

STARLINK-30264

Track STARLINK-30264 now!
10-day predictions
STARLINK-30264 is classified as:


NORAD ID: 57534
Int'l Code: 2023-115P
Launch date: August 8, 2023
Source: United States (US)
Launch site: AIR FORCE WESTERN TEST RANGE (AFWTR)
Your satellite tracking list
Your tracking list is empty




NASA's NSSDC Master Catalog

Two Line Element Set (TLE):
1 57534U 23115P   26257.96320407  .00000362  00000-0  22674-4 0  9995
2 57534  43.0032 219.9822 0001373 272.1029  87.9665 15.27575977174309
Source of the keplerian elements: AFSPC